Theta_e
317 321 324 324 324 322 322 321 319 319 319 316 316 320 321 320 323 323 317 320 317 315 315 314 314 316 315 316 319 325 328 330 330 330 330 330 329 328 327 328 330 331 329 330 330 330 333 333 334
318 321 323 321 325 323 322 320 320 320 317 314 314 315 318 321 316 317 317 317 315 314 314 314 313 314 314 314 317 319 324 327 329 328 328 327 325 323 321 322 324 325 327 328 327 327 327 329 330
319 323 325 324 323 322 321 319 319 316 315 315 316 314 316 318 314 315 316 315 312 312 313 313 313 313 313 313 313 316 320 322 323 324 325 325 325 326 326 324 324 323 323 326 327 325 326 327 325
320 319 316 322 322 320 320 319 317 315 313 312 314 317 312 314 313 315 317 314 311 310 310 309 309 310 310 310 311 311 312 313 313 314 315 316 317 318 320 324 327 326 323 322 321 324 325 324 323
319 319 323 322 321 319 317 317 316 318 317 315 313 318 314 312 314 315 315 311 309 307 306 306 307 308 307 307 306 307 307 307 307 307 308 309 310 311 312 314 316 318 322 327 327 326 322 321 325
321 318 323 323 321 318 316 315 316 317 316 313 313 314 314 311 312 312 310 309 307 306 306 307 307 307 307 307 306 305 304 304 303 302 302 302 301 302 302 304 306 308 311 315 318 322 327 327 324
322 323 323 321 320 318 318 314 315 317 316 315 312 316 311 310 312 311 309 307 306 306 306 307 307 306 306 305 304 303 303 302 303 302 302 302 302 302 301 301 301 301 302 305 308 312 316 319 325
318 321 321 319 320 320 315 314 312 314 316 312 312 317 316 310 311 310 308 306 306 306 306 306 306 305 304 303 302 302 302 302 302 302 302 302 302 302 301 301 301 300 300 300 300 301 305 310 317
318 321 322 320 318 319 313 315 311 311 311 310 311 312 312 310 310 308 307 306 305 305 305 306 305 304 303 302 302 302 302 302 302 302 302 302 301 301 301 301 300 300 300 300 300 300 300 300 302
318 321 320 318 317 317 315 314 314 312 312 311 311 312 312 310 309 308 307 306 306 305 305 305 303 303 302 301 301 301 301 301 301 301 301 301 301 300 300 299 299 299 299 300 300 300 299 299 300
316 321 317 316 315 314 315 313 312 313 316 315 315 313 312 310 309 308 307 306 306 305 304 304 302 301 301 301 301 300 300 300 300 300 300 300 300 299 299 299 299 299 299 299 299 299 299 299 298
318 315 315 315 314 313 314 312 312 312 316 315 314 312 312 310 309 309 307 306 305 305 304 303 301 301 301 300 299 299 299 299 299 299 299 299 299 298 298 298 298 298 298 298 298 298 299 299 299
317 315 314 315 313 313 312 313 314 313 314 313 313 312 311 310 310 308 306 305 305 304 304 303 301 300 300 299 299 299 299 299 299 299 298 298 298 298 297 297 297 297 296 297 297 297 297 298 298
314 314 315 313 313 313 313 315 310 315 314 313 313 313 311 310 310 307 307 306 305 303 303 302 301 300 299 299 299 299 298 298 298 298 298 297 297 297 296 296 296 296 296 296 296 296 296 297 297
312 316 317 314 313 314 311 315 315 315 313 311 312 312 311 311 308 310 309 308 306 304 303 302 300 299 298 298 299 298 298 298 298 297 297 297 296 296 296 296 296 296 295 294 295 295 295 295 296
315 314 319 316 313 312 313 317 318 315 310 312 311 308 310 311 310 309 306 306 305 304 303 301 300 299 298 298 298 297 297 297 297 296 296 296 296 296 295 295 294 293 293 293 294 294 294 294 294
317 319 318 316 312 313 314 317 316 314 311 311 312 310 308 309 307 308 306 305 305 303 301 299 298 298 297 297 297 297 297 297 296 296 296 296 295 295 294 294 293 293 293 293 292 292 292 292 292
319 318 317 316 314 312 314 314 315 314 312 312 313 313 308 305 309 310 307 305 303 301 300 299 298 297 296 296 296 296 296 296 296 296 296 295 294 293 293 293 292 292 291 291 291 290 290 290 290
315 316 318 318 312 312 314 314 314 313 313 313 312 312 309 305 307 306 305 303 301 300 299 298 297 297 296 296 295 295 295 295 295 296 296 294 293 293 293 292 292 291 290 290 290 290 289 289 289
315 317 319 317 310 309 313 312 312 313 312 312 312 313 311 306 303 302 303 302 302 300 298 297 297 296 296 295 295 295 295 295 295 295 294 293 292 292 292 291 290 290 290 290 290 289 288 288 288
315 317 318 316 311 309 308 313 311 311 308 309 310 309 309 306 304 301 303 303 301 299 298 297 297 296 296 294 294 294 294 294 294 294 293 293 293 292 291 290 290 290 289 289 290 289 289 288 288
317 314 313 312 312 316 309 315 315 312 311 311 312 310 307 309 307 304 304 304 302 301 298 297 296 295 294 293 293 293 293 293 293 293 293 292 291 290 289 289 290 290 290 290 290 289 288 288 287
316 308 310 309 311 309 314 312 313 307 310 312 313 313 309 310 309 309 308 306 304 300 299 297 295 294 293 292 292 291 292 292 292 292 292 291 290 290 289 289 290 290 290 289 289 288 288 287 286
305 308 307 305 308 314 314 313 313 313 312 312 313 311 310 310 310 308 306 303 301 300 299 296 294 294 293 291 291 291 291 291 291 291 290 289 289 289 288 289 290 289 289 288 288 287 287 286 285
307 313 317 321 318 318 309 310 312 312 312 312 314 314 309 308 309 308 307 305 303 303 300 296 294 293 292 291 290 290 290 290 290 289 289 289 288 288 288 289 289 288 288 287 287 286 285 285 284
310 315 320 324 318 318 306 311 314 312 311 311 307 308 307 307 307 308 308 306 305 304 300 297 295 293 291 290 289 290 290 290 290 289 288 287 287 288 288 288 288 288 287 286 286 285 284 284 283
309 312 312 317 305 314 315 316 314 311 309 307 307 306 306 307 309 309 308 307 305 305 304 301 296 293 291 290 289 289 289 289 289 289 288 287 287 287 287 287 287 286 285 284 284 284 283 282 281
306 307 312 313 320 319 315 315 314 314 312 310 308 307 308 309 308 309 309 307 306 306 303 298 295 294 292 290 289 289 289 289 289 288 287 287 287 287 287 286 286 285 284 283 283 283 282 280 280
305 309 307 309 313 316 316 315 310 311 312 311 311 310 310 309 309 309 310 309 306 304 303 300 295 293 291 289 289 289 289 289 288 287 287 287 287 287 286 286 285 284 283 283 283 283 283 281 279
308 310 310 312 313 311 314 315 311 311 311 310 311 309 310 310 309 309 309 309 307 305 302 300 294 293 291 289 288 288 289 288 287 287 287 287 287 286 286 285 284 283 283 283 284 283 282 280 279
Wind_Speed
7 6 5 1 4 3 4 5 1 6 6 3 8 8 11 1 4 1 9 14 9 4 1 3 4 5 6 6 7 7 8 8 9 10 10 11 11 11 11 10 9 9 10 10 9 9 9 10 12
4 4 2 1 4 4 3 5 8 8 4 10 7 4 4 4 5 4 12 11 6 3 0 3 3 4 4 5 7 9 10 11 12 13 13 14 14 14 15 14 13 14 13 13 12 12 12 12 13
5 4 2 2 2 4 1 8 8 6 12 6 5 4 2 2 7 9 13 11 7 4 3 4 2 3 4 4 5 8 10 12 13 15 15 17 17 15 14 15 17 17 17 17 17 18 17 16 16
5 2 1 4 4 2 2 7 8 12 7 5 3 4 4 10 7 12 16 11 8 7 6 3 2 3 2 1 2 4 5 7 9 11 12 15 17 18 17 18 18 18 19 20 20 21 21 21 21
5 2 3 3 3 2 3 6 12 13 7 7 8 2 4 12 13 15 16 13 11 10 8 6 4 2 3 4 4 5 6 7 9 10 11 13 14 15 17 18 19 21 21 20 21 23 23 22 23
3 2 4 5 3 3 4 8 11 13 7 5 6 4 3 10 17 19 18 17 15 12 9 7 5 6 6 7 7 7 8 8 9 10 11 13 14 15 16 18 19 20 21 22 24 25 25 24 25
3 3 2 3 2 3 3 10 13 14 11 9 3 5 4 13 20 21 20 19 16 13 10 9 8 8 8 8 7 7 7 7 8 9 10 11 12 14 15 18 20 22 22 22 23 25 28 28 28
2 2 2 3 3 3 6 10 5 13 12 9 10 6 4 14 23 25 23 21 18 16 15 14 13 12 9 8 7 5 3 4 5 6 7 8 9 11 12 14 16 19 20 21 23 25 26 27 29
3 3 4 3 5 2 7 9 6 7 6 9 11 13 11 8 23 27 26 24 22 20 19 17 16 14 11 10 7 5 4 4 4 4 5 7 8 10 12 13 15 17 19 21 22 22 23 26 28
3 3 3 1 3 3 6 11 6 6 10 11 14 23 20 15 24 29 30 28 26 24 22 20 18 16 14 12 9 6 4 3 3 4 5 6 9 11 13 14 15 16 18 19 21 22 22 23 24
1 3 1 3 6 5 5 6 7 8 12 18 18 17 23 23 26 30 30 28 27 26 25 22 19 17 15 12 10 8 6 5 4 5 6 8 10 13 14 16 17 18 19 19 20 21 22 23 23
3 5 4 2 3 4 5 4 6 17 24 13 13 16 18 25 30 33 32 31 32 29 26 23 20 17 15 12 11 8 7 6 6 6 7 9 11 14 16 17 18 20 21 21 22 23 24 24 24
5 3 5 6 7 8 7 13 11 19 23 22 24 21 20 23 28 31 31 32 32 31 28 25 22 19 17 15 12 11 9 7 6 8 8 9 12 14 16 18 19 21 23 24 24 25 25 26 27
3 5 8 7 7 8 7 7 3 8 10 14 20 23 25 26 28 30 35 37 37 33 31 28 25 21 19 16 14 12 10 8 8 8 9 10 13 16 18 20 22 23 25 26 27 28 29 29 29
1 6 7 11 5 5 4 8 12 23 17 15 19 20 22 27 29 35 37 40 39 36 33 30 26 23 20 18 18 15 11 9 9 9 9 11 14 17 19 21 23 25 27 29 31 31 32 33 32
3 3 4 5 7 3 4 15 10 11 13 17 19 19 23 27 32 34 37 39 38 37 36 32 28 26 23 21 19 15 11 10 9 9 9 12 15 17 19 22 24 26 28 30 32 33 34 35 35
5 10 9 5 10 4 11 16 5 11 14 23 27 25 26 27 30 34 38 39 40 39 35 32 29 27 24 21 19 15 13 12 10 10 10 12 14 17 19 22 26 27 29 30 32 33 35 37 38
11 7 8 10 5 9 11 21 22 33 23 35 38 29 27 27 34 35 40 41 42 40 37 33 31 29 25 22 20 18 16 14 12 10 11 13 15 18 21 23 27 28 30 31 33 34 34 35 35
7 8 16 15 4 5 16 20 25 33 30 36 36 32 27 30 28 32 38 41 42 41 38 36 34 31 27 25 24 23 20 17 14 12 12 13 16 19 22 24 26 28 30 32 34 35 36 33 35
8 13 20 13 2 6 14 21 24 23 32 34 35 33 24 23 22 28 36 41 45 44 41 39 36 33 30 29 28 27 23 20 17 14 12 14 17 19 23 24 25 28 31 32 33 35 36 35 32
11 17 14 10 6 7 12 17 7 8 14 20 31 27 20 22 22 26 33 40 45 47 45 43 38 35 33 32 31 29 26 22 17 14 14 16 17 20 22 22 25 28 31 33 34 35 35 36 34
13 9 11 8 5 11 4 19 11 9 11 13 31 19 20 21 21 24 27 35 44 48 46 43 40 37 35 33 32 30 27 22 18 17 16 17 18 20 22 23 25 30 32 35 36 37 36 36 36
5 2 4 3 8 6 12 10 9 2 7 18 20 16 20 22 21 21 25 28 33 41 46 43 41 39 37 35 32 30 27 22 20 18 17 18 18 20 22 23 26 30 33 35 36 37 38 38 37
9 3 2 1 3 9 16 14 9 5 6 8 13 13 14 18 18 18 19 20 26 33 42 44 43 42 39 37 33 30 26 22 20 19 18 18 20 21 22 24 29 32 35 36 38 38 38 39 39
5 4 6 6 5 12 3 8 20 15 14 13 19 13 13 15 16 17 20 21 23 28 35 46 47 45 42 38 34 30 25 22 20 19 19 21 22 22 23 27 30 34 36 38 38 39 38 38 38
12 8 6 11 13 21 7 11 14 10 17 25 14 15 12 15 16 18 19 21 23 26 31 43 48 47 43 38 35 30 25 22 20 19 21 21 23 24 26 30 34 37 39 38 38 39 39 39 38
8 8 3 3 2 7 12 24 9 7 10 9 18 17 22 22 20 21 21 23 22 24 30 37 48 48 45 40 35 30 26 22 20 21 20 21 23 26 30 34 37 38 39 37 37 38 39 38 37
4 4 4 3 6 16 24 29 18 10 15 9 11 19 24 22 22 24 23 24 24 24 28 35 45 50 46 40 35 30 26 21 20 19 19 21 24 28 32 35 38 38 37 36 35 37 37 37 38
6 6 5 3 5 9 18 18 3 5 5 11 13 21 18 22 28 26 23 25 26 26 30 35 44 50 49 42 36 31 25 22 19 18 20 22 25 30 33 36 37 36 35 35 36 37 38 39 39
9 15 18 9 11 9 13 26 8 5 4 4 8 16 15 14 22 25 25 27 30 32 34 39 44 51 50 43 37 30 26 21 18 18 19 23 26 29 33 35 35 34 35 36 38 40 40 42 42
Wind_Direction
155 152 148 128 231 237 156 174 205 171 180 156 149 193 208 2 201 322 166 169 176 195 203 277 265 263 283 280 267 252 239 238 244 251 258 262 266 263 261 258 260 261 264 272 275 278 286 293 300
169 158 120 227 252 240 143 159 199 180 144 136 148 150 185 206 188 168 158 172 169 189 67 307 321 306 285 272 270 265 262 266 271 273 273 272 273 272 279 280 277 274 270 266 267 270 276 277 279
156 164 218 235 249 274 246 186 182 166 151 158 159 197 202 219 194 170 177 172 173 184 210 247 294 294 289 289 285 268 267 269 273 278 282 287 285 282 285 286 284 282 277 275 275 271 267 269 272
154 143 76 250 255 235 286 180 168 149 188 205 199 203 226 200 181 186 182 179 183 192 197 193 205 236 263 316 293 283 277 277 278 279 281 278 282 286 282 276 275 278 280 281 280 280 279 277 272
173 209 226 239 230 253 218 194 180 176 177 186 188 211 221 203 194 187 185 186 188 188 182 181 205 256 289 296 292 294 291 286 284 283 285 285 287 289 290 288 284 278 273 272 274 277 276 277 275
212 233 238 254 214 232 213 190 186 206 203 175 204 225 231 219 198 191 188 191 191 192 199 207 238 263 280 289 290 294 297 298 296 297 298 299 301 298 296 293 291 290 288 283 277 273 271 270 271
256 232 288 287 281 242 207 172 205 208 219 221 215 233 216 215 202 197 197 196 199 204 213 225 236 242 250 263 273 279 290 303 311 316 319 319 316 314 310 306 305 299 294 289 283 279 275 272 270
186 243 202 206 223 244 171 177 200 209 223 223 203 239 222 219 204 199 201 203 208 211 214 221 227 232 237 241 243 247 272 307 318 321 327 331 331 328 324 321 317 316 314 308 297 289 286 281 275
164 234 243 226 196 153 171 204 200 214 210 208 211 229 232 217 204 202 204 207 210 212 216 219 223 227 232 235 230 235 262 288 309 327 334 332 333 332 332 331 331 329 326 321 317 314 304 292 282
234 254 250 216 192 235 202 221 209 204 211 233 236 239 237 231 209 209 209 210 212 214 218 219 220 223 225 227 231 240 248 268 291 302 320 331 335 334 334 334 332 330 328 326 322 318 315 310 303
224 267 194 238 231 218 226 229 212 234 239 237 232 237 238 230 216 214 217 218 217 218 218 219 220 221 223 226 233 239 249 263 280 306 322 327 332 332 332 332 332 332 331 330 329 327 325 322 316
240 246 233 262 216 196 222 191 225 225 247 261 256 250 245 228 223 220 218 215 214 218 222 222 222 224 228 230 233 241 254 271 294 307 314 320 326 329 328 327 328 330 331 332 330 328 326 323 320
228 215 230 250 256 242 239 241 251 249 255 256 263 261 249 236 228 224 220 219 220 220 222 222 223 224 227 229 233 243 250 261 280 290 300 313 319 323 324 327 328 329 328 327 325 324 324 321 318
191 254 261 267 251 240 234 250 223 259 223 232 245 252 249 241 233 222 219 220 220 221 222 223 224 226 228 231 236 240 243 255 272 287 298 308 317 323 327 327 326 325 323 322 322 321 319 317 315
300 290 275 228 227 236 213 255 235 263 255 254 251 245 242 241 230 233 228 223 223 223 223 224 225 227 227 229 233 234 241 256 271 283 296 313 321 322 322 322 321 320 320 322 321 319 318 316 314
239 249 256 160 177 192 198 277 254 264 247 251 248 242 247 240 236 232 226 225 224 224 224 223 224 226 227 230 232 232 240 253 265 280 300 312 314 316 317 317 318 319 321 320 317 318 317 316 316
213 272 231 269 211 159 213 278 263 243 254 266 264 256 249 243 231 230 226 225 225 224 222 223 224 226 230 232 233 234 240 246 255 268 292 304 309 313 314 318 316 318 318 318 318 319 320 320 319
263 247 253 263 185 215 232 258 278 276 262 266 272 266 250 238 238 234 228 224 224 224 223 224 227 229 231 232 233 233 236 239 247 264 284 301 311 315 316 315 314 319 321 322 322 321 320 320 319
266 259 261 267 200 245 256 262 268 280 277 265 272 266 255 243 250 231 228 224 224 224 224 225 226 229 229 230 230 229 231 232 242 257 283 304 310 311 313 313 317 320 321 321 320 319 319 317 318
233 260 264 280 250 220 275 273 273 268 268 270 271 270 257 248 232 223 224 224 226 227 226 226 227 229 230 232 231 229 228 232 241 255 281 297 299 310 310 309 319 319 315 315 316 317 315 313 315
228 236 256 267 323 237 293 275 241 256 263 271 263 260 250 239 227 219 222 225 226 226 227 228 228 231 232 231 231 230 229 234 243 260 275 287 306 304 302 311 316 313 311 312 313 312 309 307 306
240 231 245 266 296 282 5 291 279 252 245 264 273 253 242 241 232 225 225 225 227 230 229 229 230 230 232 232 231 229 230 235 245 257 276 291 294 299 305 308 310 307 310 313 309 306 302 300 297
249 110 173 209 257 316 257 268 280 167 241 259 262 257 234 228 229 230 232 234 234 230 231 229 229 230 231 232 231 231 234 241 251 263 277 287 295 300 299 306 310 310 308 305 303 301 297 293 288
135 120 145 154 258 255 259 225 275 242 212 246 265 236 224 212 217 229 235 228 227 230 232 229 229 230 231 230 230 232 237 244 255 268 277 289 294 295 303 311 308 306 305 305 302 297 294 290 288
195 180 277 256 225 264 152 234 262 283 242 233 256 255 216 206 209 225 226 221 222 228 230 227 228 228 229 229 231 232 237 246 257 267 284 288 293 302 311 309 306 306 305 302 299 297 293 291 286
184 217 204 261 277 288 113 251 278 227 252 248 259 257 225 221 234 232 229 226 223 231 231 228 228 228 228 227 229 233 239 247 261 273 279 290 301 308 308 306 306 306 302 301 300 297 293 291 285
164 199 235 288 105 281 259 262 239 186 251 250 253 247 243 247 240 230 231 231 225 232 237 236 227 227 228 227 228 233 239 246 257 270 283 297 303 305 308 308 307 306 306 305 301 296 293 289 284
225 140 139 200 260 258 276 281 279 239 244 212 237 239 242 240 228 232 233 237 230 239 242 237 229 229 228 226 228 232 238 246 258 272 287 295 301 305 309 309 310 311 311 308 303 300 296 290 288
171 204 227 311 227 253 265 270 103 171 263 207 219 233 243 242 231 230 240 235 237 240 238 237 229 225 225 222 226 230 237 246 258 274 286 295 304 308 310 311 312 313 313 309 305 300 296 292 289
252 232 215 225 228 235 259 270 118 58 146 182 237 243 252 257 239 230 242 237 242 242 235 236 227 224 224 221 223 226 234 243 257 272 285 297 306 311 313 314 315 316 315 314 309 305 301 296 291